DW2770 Cefalu IT current weather conditions

sailwx.info

Wind from 198

Air temperature 21.7° C
Dewpoint 16.6° C

Last reported at 2014-Jul-23 22:50 UTC.
Time now 2014-Jul-23 23:41 UTC

Location: N 38°02' E 014°02'.
View on Google Maps.

See reports from other nearby stations

  
Tides and Currents Weather Stations Pressure Air Temp Water Temp Dewpoint Dewpoint Depression Visibility Wind Speed Wind Dir Waves Ship Positions
date/time (UTC)wind fromknots sea level pressurealtimeterstation pressurevisibilityair tempwater tempwave heightnotes
2014-Jul-23 22:50 198 21.7
2014-Jul-23 22:40 180 21.7
2014-Jul-23 22:29 202 2 gusting 4 21.7
2014-Jul-23 22:19 188 0 gusting 5 21.7
2014-Jul-23 22:09 160 4 gusting 5 21.7
2014-Jul-23 21:59 202 2 gusting 5 21.7
2014-Jul-23 21:49 202 4 gusting 6 21.7
2014-Jul-23 21:40 202 2 gusting 7 21.7
2014-Jul-23 21:29 202 2 gusting 5 21.7
2014-Jul-23 21:19 164 4 gusting 5 21.7
2014-Jul-23 21:09 160 4 gusting 4 21.7
2014-Jul-23 20:59 180 2 gusting 5 21.7
2014-Jul-23 20:49 202 2 gusting 2 21.7
2014-Jul-23 20:40 202 22.2
2014-Jul-23 20:30 180 1 gusting 5 21.7
2014-Jul-23 20:19 201 1 gusting 2 22.2
2014-Jul-23 20:09 196 1 gusting 4 22.2
2014-Jul-23 19:59 180 2 gusting 5 22.2
2014-Jul-23 19:49 179 1 gusting 4 22.2
2014-Jul-23 19:40 180 0 gusting 2 22.8
2014-Jul-23 19:29 180 0 gusting 2 22.8
2014-Jul-23 19:19 202 23.3
2014-Jul-23 19:09 225 2 gusting 2 23.3
2014-Jul-23 18:59 202 2 gusting 5 23.3
2014-Jul-23 18:39 202 2 gusting 4 23.3
2014-Jul-23 18:29 202 2 gusting 4 23.3
2014-Jul-23 18:19 225 3 gusting 4 23.9
2014-Jul-23 18:09 315 23.9
2014-Jul-23 17:49 225 3 gusting 4 23.9
2014-Jul-23 17:39 262 2 gusting 6 24.4
2014-Jul-23 17:29 292 4 gusting 6 24.4
2014-Jul-23 17:20 292 3 gusting 5 24.4
2014-Jul-23 17:09 357 2 gusting 2 24.4
2014-Jul-23 16:59 270 2 gusting 4 24.4
2014-Jul-23 16:49 338 2 gusting 5 24.4
2014-Jul-23 16:39 299 1 gusting 6 24.4
2014-Jul-23 16:09 301 2 gusting 4 25.0
2014-Jul-23 15:59 25.0
2014-Jul-23 15:49 225 1 gusting 4 25.0
2014-Jul-23 15:39 270 1 gusting 6 25.0
2014-Jul-23 15:29 298 2 gusting 5 25.0
2014-Jul-23 15:19 292 3 gusting 5 25.0
2014-Jul-23 15:09 271 2 gusting 10 25.0
2014-Jul-23 14:59 225 5 gusting 10 25.0
2014-Jul-23 14:49 292 5 gusting 6 25.0
2014-Jul-23 14:39 292 5 gusting 8 25.0
2014-Jul-23 14:29 259 6 gusting 6 25.0
2014-Jul-23 14:20 292 5 gusting 8 25.0
2014-Jul-23 14:10 202 8 gusting 8 25.6
2014-Jul-23 14:00 270 1 gusting 7 25.0
2014-Jul-23 13:49 315 6 gusting 11 25.6
2014-Jul-23 13:39 301 4 gusting 8 25.0
2014-Jul-23 13:29 292 6 gusting 12 25.0
2014-Jul-23 13:19 225 7 gusting 12 25.6
2014-Jul-23 13:00 315 3 gusting 6 25.6
2014-Jul-23 12:50 248 4 gusting 6 25.6
2014-Jul-23 12:39 257 2 gusting 6 25.6
2014-Jul-23 12:29 270 1 gusting 11 25.6
2014-Jul-23 12:19 292 5 gusting 8 25.6
2014-Jul-23 12:09 248 4 gusting 6 25.6
2014-Jul-23 11:59 202 4 gusting 7 25.0
2014-Jul-23 11:49 296 5 gusting 13 25.6
2014-Jul-23 11:39 255 5 gusting 6 25.6
2014-Jul-23 11:30 292 2 gusting 10 25.0
2014-Jul-23 11:19 248 4 gusting 6 25.0
2014-Jul-23 11:09 302 2 gusting 6 25.6
2014-Jul-23 11:00 230 5 gusting 6 25.0
2014-Jul-23 10:50 248 2 gusting 8 25.0
2014-Jul-23 10:19 270 5 gusting 7 25.0
2014-Jul-23 10:09 292 4 gusting 12 25.0
2014-Jul-23 09:59 284 5 gusting 11 25.0
2014-Jul-23 09:49 202 9 gusting 13 25.0
2014-Jul-23 09:39 338 11 gusting 11 25.0
2014-Jul-23 09:29 292 6 gusting 11 25.0
2014-Jul-23 09:19 248 6 gusting 8 25.0
2014-Jul-23 09:09 248 6 gusting 8 25.0
2014-Jul-23 08:59 270 6 gusting 7 25.0
2014-Jul-23 08:39 248 7 gusting 10 25.0
2014-Jul-23 08:09 292 8 gusting 12 24.4
2014-Jul-23 07:49 315 8 gusting 11 24.4
2014-Jul-23 07:39 315 7 gusting 10 23.9
2014-Jul-23 07:29 244 6 gusting 8 23.9
2014-Jul-23 07:09 270 7 gusting 11 23.9
2014-Jul-23 07:00 294 8 gusting 8 23.9
2014-Jul-23 06:49 045 8 gusting 10 23.9
2014-Jul-23 06:39 292 8 gusting 10 23.9
2014-Jul-23 06:30 307 6 gusting 8 23.9
2014-Jul-23 06:19 259 6 gusting 11 23.9
2014-Jul-23 06:09 248 6 gusting 6 23.9
2014-Jul-23 05:59 324 4 gusting 10 23.9
2014-Jul-23 05:49 292 5 gusting 13 23.9
2014-Jul-23 05:39 248 12 gusting 13 23.9
2014-Jul-23 05:19 338 7 gusting 8 23.3
2014-Jul-23 05:09 248 8 gusting 13 23.3
2014-Jul-23 04:59 246 12 gusting 13 23.3
2014-Jul-23 04:50 270 6 gusting 11 23.3
2014-Jul-23 04:29 234 6 gusting 10 23.3
2014-Jul-23 04:20 248 10 gusting 18 23.3
2014-Jul-23 04:10 225 8 gusting 13 23.3
2014-Jul-23 03:50 202 13 gusting 18 23.3
2014-Jul-23 03:00 232 8 gusting 15 23.9
2014-Jul-23 02:30 225 8 gusting 14 23.9
2014-Jul-23 02:09 202 11 gusting 15 23.9
2014-Jul-23 01:49 222 10 gusting 12 23.9
2014-Jul-23 01:39 202 7 gusting 12 23.9
2014-Jul-23 01:29 245 6 gusting 8 23.9
2014-Jul-23 01:19 255 7 gusting 11 23.9
2014-Jul-23 01:09 225 8 gusting 11 23.9
2014-Jul-23 00:59 203 10 gusting 13 23.9
2014-Jul-23 00:39 225 13 gusting 14 23.9
2014-Jul-23 00:29 180 11 gusting 13 23.9
2014-Jul-23 00:19 215 13 gusting 13 23.9
2014-Jul-23 00:10 225 13 gusting 13 23.9
2014-Jul-22 23:49 227 6 gusting 12 23.9
2014-Jul-22 23:39 248 13 gusting 13 23.9
2014-Jul-22 23:29 202 12 gusting 14 23.9
2014-Jul-22 23:19 235 9 gusting 14 23.9
2014-Jul-22 23:09 202 7 gusting 11 23.9
2014-Jul-22 22:59 202 7 gusting 8 23.3
2014-Jul-22 22:49 225 6 gusting 6 22.8
2014-Jul-22 22:39 202 5 gusting 5 23.3
2014-Jul-22 22:09 202 5 gusting 6 23.3
2014-Jul-22 21:59 180 5 gusting 7 23.3
2014-Jul-22 21:49 225 5 gusting 8 23.3
2014-Jul-22 21:39 202 6 gusting 8 23.3
2014-Jul-22 21:29 248 6 gusting 8 23.3
2014-Jul-22 21:19 239 4 gusting 7 23.3
2014-Jul-22 21:09 225 7 gusting 10 23.3
2014-Jul-22 20:59 225 6 gusting 10 23.3
2014-Jul-22 20:49 241 6 gusting 12 23.3
2014-Jul-22 20:40 203 6 gusting 8 23.3
2014-Jul-22 20:29 225 10 gusting 10 23.3
2014-Jul-22 20:20 200 4 gusting 8 23.3
2014-Jul-22 20:09 270 6 gusting 6 23.9
2014-Jul-22 20:00 225 5 gusting 7 23.3
2014-Jul-22 19:49 259 7 gusting 7 23.3
2014-Jul-22 19:30 225 4 gusting 17 23.3
2014-Jul-22 19:19 344 7 gusting 13 23.3
2014-Jul-22 19:10 248 12 gusting 13 23.9
2014-Jul-22 18:29 202 6 gusting 8 23.9
2014-Jul-22 18:19 202 4 gusting 8 23.9
2014-Jul-22 18:09 184 7 gusting 8 24.4
2014-Jul-22 17:59 248 7 gusting 8 24.4
2014-Jul-22 17:49 289 8 gusting 10 24.4
2014-Jul-22 17:39 265 6 gusting 13 24.4
2014-Jul-22 17:29 292 10 gusting 13 24.4
2014-Jul-22 17:19 280 8 gusting 15 25.0
2014-Jul-22 17:00 25.0
2014-Jul-22 16:49 315 4 gusting 14 25.0
2014-Jul-22 16:40 270 6 gusting 11 25.0
2014-Jul-22 16:29 248 10 gusting 11 25.0
2014-Jul-22 16:19 292 10 gusting 10 25.0
2014-Jul-22 16:09 250 6 gusting 13 25.0
2014-Jul-22 15:59 315 10 gusting 14 25.0
2014-Jul-22 15:49 231 5 gusting 14 25.0
2014-Jul-22 15:39 270 7 gusting 11 25.0
2014-Jul-22 15:29 270 9 gusting 15 24.4
2014-Jul-22 15:19 191 5 gusting 15 25.0
2014-Jul-22 15:09 227 4 gusting 13 25.0
2014-Jul-22 14:59 270 10 gusting 13 25.6
2014-Jul-22 14:49 286 6 gusting 19 25.6
2014-Jul-22 14:39 270 6 gusting 11 25.6
2014-Jul-22 14:29 248 6 gusting 11 25.6
2014-Jul-22 14:19 235 10 gusting 13 25.0
2014-Jul-22 14:09 248 5 gusting 13 25.0
2014-Jul-22 13:59 248 14 gusting 14 25.6
2014-Jul-22 13:49 256 9 gusting 14 25.0
2014-Jul-22 13:39 248 11 gusting 15 25.6
2014-Jul-22 13:19 335 10 gusting 13 25.0
2014-Jul-22 13:09 270 10 gusting 13 25.0
2014-Jul-22 12:59 135 8 gusting 18 25.6
2014-Jul-22 12:40 292 15 gusting 18 25.6
2014-Jul-22 12:29 248 7 gusting 11 26.1
2014-Jul-22 12:19 233 6 gusting 13 26.7
2014-Jul-22 12:09 315 7 gusting 11 26.7
2014-Jul-22 11:49 312 6 gusting 6 26.1
2014-Jul-22 11:39 270 4 gusting 7 26.1
2014-Jul-22 11:29 315 7 gusting 8 25.6
2014-Jul-22 11:19 305 6 gusting 6 26.1
2014-Jul-22 11:10 315 6 gusting 7 26.1
2014-Jul-22 10:50 292 6 gusting 8 25.6
2014-Jul-22 10:39 308 5 gusting 10 25.6
2014-Jul-22 10:30 225 3 gusting 6 26.1
2014-Jul-22 10:19 292 6 gusting 7 25.6
2014-Jul-22 10:09 292 5 gusting 8 25.6
2014-Jul-22 09:59 270 8 gusting 8 25.0
2014-Jul-22 09:49 307 1 gusting 4 25.0
2014-Jul-22 09:39 338 1 gusting 2 25.0
2014-Jul-22 09:29 292 4 gusting 6 25.0
2014-Jul-22 09:20 263 4 gusting 5 25.0
2014-Jul-22 08:59 315 4 gusting 7 24.4
2014-Jul-22 08:49 295 7 gusting 7 25.0
2014-Jul-22 08:39 292 4 gusting 7 25.0
2014-Jul-22 08:19 302 6 gusting 10 25.0
2014-Jul-22 08:09 273 8 gusting 8 25.0
2014-Jul-22 07:59 338 2 gusting 6 25.0
2014-Jul-22 07:50 333 6 gusting 11 25.0
2014-Jul-22 07:40 333 6 gusting 11 24.4
2014-Jul-22 07:20 245 10 gusting 13 25.0
2014-Jul-22 07:10 265 3 gusting 11 24.4
2014-Jul-22 07:00 158 10 gusting 11 25.0
2014-Jul-22 06:50 270 3 gusting 8 24.4
2014-Jul-22 06:30 225 6 gusting 10 24.4
2014-Jul-22 06:20 248 6 gusting 8 23.9
2014-Jul-22 06:09 270 4 gusting 12 23.9
2014-Jul-22 05:59 315 3 gusting 6 23.9
2014-Jul-22 05:49 225 6 gusting 6 23.9
2014-Jul-22 05:40 231 2 gusting 6 23.3
2014-Jul-22 05:29 202 4 gusting 13 23.3
2014-Jul-22 05:20 202 7 gusting 10 23.3
2014-Jul-22 05:09 202 9 gusting 10 22.8
2014-Jul-22 04:59 248 4 gusting 6 22.8
2014-Jul-22 04:50 202 8 gusting 12 22.8
2014-Jul-22 04:29 202 4 gusting 8 22.8
2014-Jul-22 04:20 248 5 gusting 6 22.8
2014-Jul-22 04:09 225 5 gusting 6 22.8
2014-Jul-22 03:39 244 1 gusting 6 23.3
2014-Jul-22 03:29 202 3 gusting 6 23.3
2014-Jul-22 03:19 248 6 gusting 7 23.3
2014-Jul-22 03:10 239 7 gusting 11 23.3
2014-Jul-22 02:59 248 8 gusting 11 23.3
2014-Jul-22 02:49 225 7 gusting 7 23.3
2014-Jul-22 02:39 238 6 gusting 12 23.3
2014-Jul-22 02:19 225 5 gusting 6 23.3
2014-Jul-22 02:09 223 5 gusting 7 23.3
2014-Jul-22 01:59 202 7 gusting 10 23.3
2014-Jul-22 01:49 225 5 gusting 10 23.3
2014-Jul-22 01:40 215 9 gusting 10 23.3
2014-Jul-22 01:29 180 5 gusting 8 23.3
2014-Jul-22 01:19 225 8 gusting 10 23.3
2014-Jul-22 01:09 237 8 gusting 10 23.9
2014-Jul-22 00:59 202 4 gusting 11 23.9
2014-Jul-22 00:39 225 5 gusting 10 23.9
2014-Jul-22 00:19 225 6 gusting 8 24.4
2014-Jul-22 00:09 235 7 gusting 8 23.9
2014-Jul-21 23:59 248 7 gusting 12 24.4
2014-Jul-21 23:49 225 8 gusting 10 24.4
2014-Jul-21 23:29 202 6 gusting 13 24.4
2014-Jul-21 23:10 235 7 gusting 8 24.4